Time,TemperatureF,DewpointF,PressureIn,WindDirection,WindDirectionDegrees,WindSpeedMPH,WindSpeedGustMPH,Humidity,HourlyPrecipIn,Conditions,Clouds,dailyrainin,SoftwareType,DateUTC
2013-04-17 00:00:00,64.2,57.6,30.15,NE,41,0.0,0.0,79,0.00,,---,0.00,VWS V14.01,2013-04-17 04:00:00,
2013-04-17 00:01:00,64.3,57.7,30.15,NE,41,0.0,0.0,79,0.00,,---,0.00,VWS V14.01,2013-04-17 04:01:00,
2013-04-17 00:06:00,64.3,57.7,30.17,East,87,0.0,2.0,79,0.00,,---,0.00,VWS V14.01,2013-04-17 04:06:00,
2013-04-17 00:12:00,63.7,59.1,30.17,SSW,211,0.0,1.0,85,0.12,,---,0.12,VWS V14.01,2013-04-17 04:12:00,
2013-04-17 00:17:00,62.4,58.8,30.17,NW,307,0.0,1.0,88,0.18,,---,0.18,VWS V14.01,2013-04-17 04:17:00,
2013-04-17 00:22:00,61.5,58.5,30.17,WNW,297,0.0,0.0,90,0.21,,---,0.21,VWS V14.01,2013-04-17 04:22:00,
2013-04-17 00:27:00,61.0,58.4,30.18,NW,305,0.0,0.0,91,0.22,,---,0.22,VWS V14.01,2013-04-17 04:27:00,
2013-04-17 00:32:00,60.7,58.4,30.18,NW,312,0.0,0.0,92,0.23,,---,0.23,VWS V14.01,2013-04-17 04:32:00,
2013-04-17 00:37:00,60.5,58.2,30.17,NW,324,0.0,0.0,92,0.23,,---,0.23,VWS V14.01,2013-04-17 04:37:00,
2013-04-17 00:42:00,60.3,58.3,30.17,WNW,294,0.0,0.0,93,0.23,,---,0.23,VWS V14.01,2013-04-17 04:42:00,
2013-04-17 00:47:00,60.2,58.2,30.17,West,278,0.0,0.0,93,0.23,,---,0.23,VWS V14.01,2013-04-17 04:47:00,
2013-04-17 00:52:00,60.1,58.1,30.17,West,278,0.0,0.0,93,0.25,,---,0.25,VWS V14.01,2013-04-17 04:52:00,
2013-04-17 00:57:00,60.0,58.3,30.16,NW,316,0.0,0.0,94,0.26,,---,0.26,VWS V14.01,2013-04-17 04:57:00,
2013-04-17 01:02:00,60.0,58.3,30.15,WNW,282,0.0,0.0,94,0.26,,---,0.26,VWS V14.01,2013-04-17 05:02:00,
2013-04-17 01:07:00,59.9,58.2,30.16,WSW,249,0.0,0.0,94,0.27,,---,0.27,VWS V14.01,2013-04-17 05:07:00,
2013-04-17 01:13:00,59.8,58.1,30.16,WSW,248,0.0,0.0,94,0.15,,---,0.27,VWS V14.01,2013-04-17 05:13:00,
2013-04-17 01:18:00,59.8,58.4,30.16,WSW,253,0.0,0.0,95,0.09,,---,0.28,VWS V14.01,2013-04-17 05:18:00,
2013-04-17 01:23:00,59.7,58.3,30.17,WSW,254,0.0,0.0,95,0.08,,---,0.29,VWS V14.01,2013-04-17 05:23:00,
2013-04-17 01:28:00,59.7,58.3,30.16,WSW,253,0.0,0.0,95,0.09,,---,0.31,VWS V14.01,2013-04-17 05:28:00,
2013-04-17 01:33:00,59.6,58.2,30.15,WSW,253,0.0,0.0,95,0.08,,---,0.31,VWS V14.01,2013-04-17 05:33:00,
2013-04-17 01:39:00,59.6,58.2,30.14,WSW,253,0.0,0.0,95,0.09,,---,0.32,VWS V14.01,2013-04-17 05:39:00,
2013-04-17 01:44:00,59.6,58.2,30.14,SW,224,0.0,0.0,95,0.09,,---,0.32,VWS V14.01,2013-04-17 05:44:00,
2013-04-17 01:49:00,59.5,58.4,30.14,SW,224,0.0,0.0,96,0.09,,---,0.32,VWS V14.01,2013-04-17 05:49:00,
2013-04-17 01:54:00,59.5,58.4,30.14,SW,225,0.0,0.0,96,0.07,,---,0.32,VWS V14.01,2013-04-17 05:54:00,
2013-04-17 01:59:00,59.4,58.3,30.13,SW,225,0.0,0.0,96,0.06,,---,0.32,VWS V14.01,2013-04-17 05:59:00,
2013-04-17 02:04:00,59.3,58.2,30.13,SW,225,0.0,0.0,96,0.06,,---,0.32,VWS V14.01,2013-04-17 06:04:00,
2013-04-17 02:09:00,59.3,58.2,30.12,SW,225,0.0,0.0,96,0.05,,---,0.32,VWS V14.01,2013-04-17 06:09:00,
2013-04-17 02:14:00,59.3,58.2,30.12,SW,225,0.0,0.0,96,0.04,,---,0.32,VWS V14.01,2013-04-17 06:14:00,
2013-04-17 02:19:00,59.3,58.2,30.12,SW,225,0.0,0.0,96,0.04,,---,0.32,VWS V14.01,2013-04-17 06:19:00,
2013-04-17 02:24:00,59.2,58.1,30.12,SW,225,0.0,0.0,96,0.03,,---,0.32,VWS V14.01,2013-04-17 06:24:00,
2013-04-17 02:29:00,59.1,58.0,30.12,SW,225,0.0,0.0,96,0.01,,---,0.32,VWS V14.01,2013-04-17 06:29:00,
2013-04-17 02:34:00,59.1,58.0,30.12,SW,225,0.0,0.0,96,0.00,,---,0.32,VWS V14.01,2013-04-17 06:34:00,
2013-04-17 02:40:00,59.1,58.0,30.12,SW,225,0.0,0.0,96,0.00,,---,0.32,VWS V14.01,2013-04-17 06:40:00,
2013-04-17 02:45:00,59.1,58.0,30.12,SW,225,0.0,0.0,96,0.00,,---,0.32,VWS V14.01,2013-04-17 06:45:00,
2013-04-17 02:50:00,59.1,58.0,30.12,SW,226,0.0,0.0,96,0.00,,---,0.32,VWS V14.01,2013-04-17 06:50:00,
2013-04-17 02:55:00,59.0,57.6,30.12,SW,226,0.0,0.0,95,0.00,,---,0.32,VWS V14.01,2013-04-17 06:55:00,
2013-04-17 03:00:00,59.0,57.9,30.12,SW,226,0.0,0.0,96,0.00,,---,0.32,VWS V14.01,2013-04-17 07:00:00,
2013-04-17 03:05:00,58.9,57.5,30.12,SW,226,0.0,0.0,95,0.00,,---,0.32,VWS V14.01,2013-04-17 07:05:00,
2013-04-17 03:10:00,58.8,57.4,30.11,SW,226,0.0,0.0,95,0.00,,---,0.32,VWS V14.01,2013-04-17 07:10:00,
2013-04-17 03:15:00,58.7,57.3,30.11,SW,225,0.0,0.0,95,0.00,,---,0.32,VWS V14.01,2013-04-17 07:15:00,
2013-04-17 03:20:00,58.6,57.5,30.10,SW,226,0.0,0.0,96,0.00,,---,0.32,VWS V14.01,2013-04-17 07:20:00,
2013-04-17 03:26:00,58.6,57.5,30.11,SW,226,0.0,0.0,96,0.00,,---,0.32,VWS V14.01,2013-04-17 07:26:00,
2013-04-17 03:31:00,58.6,57.5,30.10,SW,226,0.0,0.0,96,0.00,,---,0.32,VWS V14.01,2013-04-17 07:31:00,
2013-04-17 03:36:00,58.6,57.5,30.10,SW,226,0.0,0.0,96,0.00,,---,0.32,VWS V14.01,2013-04-17 07:36:00,
2013-04-17 03:41:00,58.6,57.5,30.10,SW,226,0.0,0.0,96,0.00,,---,0.32,VWS V14.01,2013-04-17 07:41:00,
2013-04-17 03:46:00,58.6,57.5,30.11,SW,226,0.0,0.0,96,0.00,,---,0.32,VWS V14.01,2013-04-17 07:46:00,
2013-04-17 03:51:00,58.6,57.5,30.11,SW,226,0.0,0.0,96,0.00,,---,0.32,VWS V14.01,2013-04-17 07:51:00,
2013-04-17 03:56:00,58.4,57.3,30.11,SW,226,0.0,0.0,96,0.00,,---,0.32,VWS V14.01,2013-04-17 07:56:00,
2013-04-17 04:01:00,58.4,57.3,30.11,SW,226,0.0,0.0,96,0.00,,---,0.32,VWS V14.01,2013-04-17 08:01:00,
2013-04-17 04:06:00,58.3,57.2,30.11,SW,226,0.0,0.0,96,0.00,,---,0.32,VWS V14.01,2013-04-17 08:06:00,
2013-04-17 04:11:00,58.1,57.0,30.11,SW,226,0.0,0.0,96,0.00,,---,0.32,VWS V14.01,2013-04-17 08:11:00,
2013-04-17 04:16:00,58.1,57.0,30.11,SW,226,0.0,0.0,96,0.00,,---,0.32,VWS V14.01,2013-04-17 08:16:00,
2013-04-17 04:21:00,57.9,56.8,30.11,SW,226,0.0,0.0,96,0.00,,---,0.32,VWS V14.01,2013-04-17 08:21:00,
2013-04-17 04:26:00,57.9,56.8,30.12,SW,226,0.0,0.0,96,0.00,,---,0.32,VWS V14.01,2013-04-17 08:26:00,
2013-04-17 04:31:00,58.0,56.9,30.12,SW,226,0.0,0.0,96,0.00,,---,0.32,VWS V14.01,2013-04-17 08:31:00,
2013-04-17 04:37:00,58.1,57.0,30.12,SW,226,0.0,0.0,96,0.00,,---,0.32,VWS V14.01,2013-04-17 08:37:00,
2013-04-17 04:42:00,58.0,56.9,30.12,SW,226,0.0,0.0,96,0.00,,---,0.32,VWS V14.01,2013-04-17 08:42:00,
2013-04-17 04:47:00,58.1,57.0,30.12,West,263,0.0,0.0,96,0.00,,---,0.32,VWS V14.01,2013-04-17 08:47:00,
2013-04-17 04:52:00,58.1,57.0,30.12,West,261,0.0,0.0,96,0.00,,---,0.32,VWS V14.01,2013-04-17 08:52:00,
2013-04-17 04:57:00,58.0,56.9,30.12,West,263,0.0,0.0,96,0.00,,---,0.32,VWS V14.01,2013-04-17 08:57:00,
2013-04-17 05:02:00,58.0,56.9,30.12,West,262,0.0,0.0,96,0.00,,---,0.32,VWS V14.01,2013-04-17 09:02:00,
2013-04-17 05:07:00,57.9,56.8,30.13,West,261,0.0,0.0,96,0.00,,---,0.32,VWS V14.01,2013-04-17 09:07:00,
2013-04-17 05:12:00,57.8,56.7,30.13,West,262,0.0,0.0,96,0.00,,---,0.32,VWS V14.01,2013-04-17 09:12:00,
2013-04-17 05:18:00,57.7,56.6,30.13,West,262,0.0,0.0,96,0.00,,---,0.32,VWS V14.01,2013-04-17 09:18:00,
2013-04-17 05:23:00,57.7,56.6,30.13,West,263,0.0,0.0,96,0.00,,---,0.32,VWS V14.01,2013-04-17 09:23:00,
2013-04-17 05:28:00,57.5,56.4,30.13,West,263,0.0,0.0,96,0.00,,---,0.32,VWS V14.01,2013-04-17 09:28:00,
2013-04-17 05:33:00,57.7,56.9,30.13,West,263,0.0,0.0,97,0.00,,---,0.32,VWS V14.01,2013-04-17 09:33:00,
2013-04-17 05:38:00,57.9,57.1,30.14,West,262,0.0,0.0,97,0.00,,---,0.32,VWS V14.01,2013-04-17 09:38:00,
2013-04-17 05:43:00,57.8,57.0,30.14,West,263,0.0,0.0,97,0.00,,---,0.32,VWS V14.01,2013-04-17 09:43:00,
2013-04-17 05:48:00,57.9,57.1,30.14,West,261,0.0,0.0,97,0.00,,---,0.32,VWS V14.01,2013-04-17 09:48:00,
2013-04-17 05:54:00,58.1,57.3,30.14,West,262,0.0,0.0,97,0.00,,---,0.32,VWS V14.01,2013-04-17 09:54:00,
2013-04-17 05:59:00,58.0,57.2,30.14,West,262,0.0,0.0,97,0.00,,---,0.32,VWS V14.01,2013-04-17 09:59:00,
2013-04-17 06:04:00,57.8,56.7,30.14,West,263,0.0,0.0,96,0.00,,---,0.32,VWS V14.01,2013-04-17 10:04:00,
2013-04-17 06:09:00,57.7,56.6,30.15,West,263,0.0,0.0,96,0.00,,---,0.32,VWS V14.01,2013-04-17 10:09:00,
2013-04-17 06:15:00,57.6,56.5,30.14,West,263,0.0,0.0,96,0.00,,---,0.32,VWS V14.01,2013-04-17 10:15:00,
2013-04-17 06:20:00,57.7,56.9,30.15,West,263,0.0,0.0,97,0.00,,---,0.32,VWS V14.01,2013-04-17 10:20:00,
2013-04-17 06:25:00,57.7,56.9,30.15,West,261,0.0,0.0,97,0.00,,---,0.32,VWS V14.01,2013-04-17 10:25:00,
2013-04-17 06:30:00,57.7,56.9,30.15,West,261,0.0,0.0,97,0.00,,---,0.32,VWS V14.01,2013-04-17 10:30:00,
2013-04-17 06:35:00,57.6,56.8,30.15,West,262,0.0,0.0,97,0.00,,---,0.32,VWS V14.01,2013-04-17 10:35:00,
2013-04-17 06:40:00,57.7,56.9,30.15,West,261,0.0,0.0,97,0.00,,---,0.32,VWS V14.01,2013-04-17 10:40:00,
2013-04-17 06:45:00,57.7,56.9,30.16,West,262,0.0,0.0,97,0.00,,---,0.32,VWS V14.01,2013-04-17 10:45:00,
2013-04-17 06:50:00,57.8,57.0,30.16,West,262,0.0,0.0,97,0.00,,---,0.32,VWS V14.01,2013-04-17 10:50:00,
2013-04-17 06:55:00,58.0,57.2,30.16,West,261,0.0,0.0,97,0.00,,---,0.32,VWS V14.01,2013-04-17 10:55:00,
2013-04-17 07:00:00,58.0,57.2,30.16,West,262,0.0,0.0,97,0.00,,---,0.32,VWS V14.01,2013-04-17 11:00:00,
2013-04-17 07:06:00,58.1,57.3,30.16,West,261,0.0,0.0,97,0.00,,---,0.32,VWS V14.01,2013-04-17 11:06:00,
2013-04-17 07:11:00,58.2,57.6,30.16,West,262,0.0,0.0,98,0.00,,---,0.32,VWS V14.01,2013-04-17 11:11:00,
2013-04-17 07:16:00,58.4,57.8,30.16,West,262,0.0,0.0,98,0.00,,---,0.32,VWS V14.01,2013-04-17 11:16:00,
2013-04-17 07:21:00,58.5,57.9,30.16,West,262,0.0,0.0,98,0.00,,---,0.32,VWS V14.01,2013-04-17 11:21:00,
2013-04-17 07:26:00,58.6,58.0,30.16,West,262,0.0,0.0,98,0.00,,---,0.32,VWS V14.01,2013-04-17 11:26:00,
2013-04-17 07:32:00,58.8,58.2,30.17,West,263,0.0,0.0,98,0.00,,---,0.32,VWS V14.01,2013-04-17 11:32:00,
2013-04-17 07:37:00,59.0,58.4,30.17,West,263,0.0,0.0,98,0.00,,---,0.32,VWS V14.01,2013-04-17 11:37:00,
2013-04-17 07:42:00,59.2,58.6,30.17,West,262,0.0,0.0,98,0.00,,---,0.32,VWS V14.01,2013-04-17 11:42:00,
2013-04-17 07:47:00,59.6,59.0,30.17,West,263,0.0,0.0,98,0.00,,---,0.32,VWS V14.01,2013-04-17 11:47:00,
2013-04-17 07:52:00,59.9,59.3,30.17,West,263,0.0,0.0,98,0.00,,---,0.32,VWS V14.01,2013-04-17 11:52:00,
2013-04-17 07:57:00,60.1,59.5,30.17,West,263,0.0,0.0,98,0.00,,---,0.32,VWS V14.01,2013-04-17 11:57:00,
2013-04-17 08:02:00,60.0,59.4,30.17,West,271,0.0,0.0,98,0.00,,---,0.32,VWS V14.01,2013-04-17 12:02:00,
2013-04-17 08:07:00,60.1,59.5,30.18,West,271,0.0,0.0,98,0.00,,---,0.32,VWS V14.01,2013-04-17 12:07:00,
2013-04-17 08:12:00,60.2,59.3,30.18,West,271,0.0,0.0,97,0.00,,---,0.32,VWS V14.01,2013-04-17 12:12:00,
2013-04-17 08:17:00,60.2,59.3,30.18,West,271,0.0,0.0,97,0.00,,---,0.32,VWS V14.01,2013-04-17 12:17:00,
2013-04-17 08:23:00,60.3,59.5,30.18,West,271,0.0,0.0,97,0.00,,---,0.32,VWS V14.01,2013-04-17 12:23:00,
2013-04-17 08:28:00,60.4,59.5,30.18,West,271,0.0,0.0,97,0.00,,---,0.32,VWS V14.01,2013-04-17 12:28:00,
2013-04-17 08:33:00,60.6,59.8,30.18,West,271,0.0,0.0,97,0.00,,---,0.32,VWS V14.01,2013-04-17 12:33:00,
2013-04-17 08:38:00,60.9,59.8,30.18,West,271,0.0,0.0,96,0.00,,---,0.32,VWS V14.01,2013-04-17 12:38:00,
2013-04-17 08:43:00,61.2,60.0,30.18,West,275,0.0,0.0,96,0.00,,---,0.32,VWS V14.01,2013-04-17 12:43:00,
2013-04-17 08:48:00,61.4,60.0,30.18,West,276,0.0,0.0,95,0.00,,---,0.32,VWS V14.01,2013-04-17 12:48:00,
2013-04-17 08:54:00,61.5,59.8,30.17,West,275,0.0,0.0,94,0.00,,---,0.32,VWS V14.01,2013-04-17 12:54:00,
2013-04-17 08:59:00,61.8,60.1,30.17,West,274,0.0,0.0,94,0.00,,---,0.32,VWS V14.01,2013-04-17 12:59:00,
2013-04-17 09:04:00,62.2,60.5,30.17,West,275,0.0,0.0,94,0.00,,---,0.32,VWS V14.01,2013-04-17 13:04:00,
2013-04-17 09:09:00,62.6,60.2,30.17,NNW,334,0.0,0.0,92,0.00,,---,0.32,VWS V14.01,2013-04-17 13:09:00,
2013-04-17 09:14:00,62.9,60.5,30.17,NNW,334,0.0,0.0,92,0.00,,---,0.32,VWS V14.01,2013-04-17 13:14:00,
2013-04-17 09:19:00,63.3,60.3,30.17,NW,326,0.0,0.0,90,0.00,,---,0.32,VWS V14.01,2013-04-17 13:19:00,
2013-04-17 09:24:00,63.5,60.2,30.17,NNW,332,0.0,0.0,89,0.00,,---,0.32,VWS V14.01,2013-04-17 13:24:00,
2013-04-17 09:29:00,63.8,60.8,30.17,NNE,32,0.0,0.0,90,0.00,,---,0.32,VWS V14.01,2013-04-17 13:29:00,
2013-04-17 09:34:00,64.1,61.4,30.18,NNW,333,0.0,0.0,91,0.00,,---,0.32,VWS V14.01,2013-04-17 13:34:00,
2013-04-17 09:39:00,64.4,61.1,30.18,WSW,239,0.0,0.0,89,0.00,,---,0.32,VWS V14.01,2013-04-17 13:39:00,
2013-04-17 09:44:00,64.9,61.3,30.18,NE,39,0.0,0.0,88,0.00,,---,0.32,VWS V14.01,2013-04-17 13:44:00,
2013-04-17 09:49:00,64.9,60.9,30.18,NE,47,0.0,0.0,87,0.00,,---,0.32,VWS V14.01,2013-04-17 13:49:00,
2013-04-17 09:54:00,64.8,61.2,30.18,North,7,0.0,0.0,88,0.00,,---,0.32,VWS V14.01,2013-04-17 13:54:00,
2013-04-17 09:59:00,64.6,61.0,30.18,WNW,287,0.0,0.0,88,0.00,,---,0.32,VWS V14.01,2013-04-17 13:59:00,
2013-04-17 10:04:00,64.4,61.1,30.18,West,278,0.0,0.0,89,0.00,,---,0.32,VWS V14.01,2013-04-17 14:04:00,
2013-04-17 10:09:00,64.5,61.2,30.18,North,9,0.0,0.0,89,0.00,,---,0.32,VWS V14.01,2013-04-17 14:09:00,
2013-04-17 10:15:00,64.3,61.0,30.18,SE,137,0.0,0.0,89,0.00,,---,0.32,VWS V14.01,2013-04-17 14:15:00,
2013-04-17 10:20:00,64.2,60.6,30.19,NNW,335,0.0,0.0,88,0.00,,---,0.32,VWS V14.01,2013-04-17 14:20:00,
2013-04-17 10:25:00,64.1,60.5,30.18,NNE,32,0.0,0.0,88,0.00,,---,0.32,VWS V14.01,2013-04-17 14:25:00,
2013-04-17 10:30:00,64.3,61.0,30.18,North,359,0.0,0.0,89,0.00,,---,0.32,VWS V14.01,2013-04-17 14:30:00,
2013-04-17 10:35:00,64.6,61.0,30.19,WNW,290,0.0,0.0,88,0.00,,---,0.32,VWS V14.01,2013-04-17 14:35:00,
2013-04-17 10:40:00,64.6,61.3,30.19,ENE,60,0.0,0.0,89,0.00,,---,0.32,VWS V14.01,2013-04-17 14:40:00,
2013-04-17 10:45:00,64.7,61.4,30.19,ENE,60,0.0,0.0,89,0.00,,---,0.32,VWS V14.01,2013-04-17 14:45:00,
2013-04-17 10:50:00,65.0,61.7,30.19,NW,326,0.0,1.0,89,0.00,,---,0.32,VWS V14.01,2013-04-17 14:50:00,
2013-04-17 10:55:00,65.0,61.0,30.19,NNE,13,0.0,2.0,87,0.00,,---,0.32,VWS V14.01,2013-04-17 14:55:00,
2013-04-17 11:01:00,64.9,61.3,30.19,NW,312,1.0,1.0,88,0.00,,---,0.32,VWS V14.01,2013-04-17 15:01:00,
2013-04-17 11:06:00,65.4,61.1,30.19,East,98,1.0,1.0,86,0.00,,---,0.32,VWS V14.01,2013-04-17 15:06:00,
2013-04-17 11:11:00,66.6,61.6,30.18,NW,316,0.0,0.0,84,0.00,,---,0.32,VWS V14.01,2013-04-17 15:11:00,
2013-04-17 11:16:00,67.0,60.6,30.19,NW,311,0.0,0.0,80,0.00,,---,0.32,VWS V14.01,2013-04-17 15:16:00,
2013-04-17 11:21:00,67.3,61.3,30.19,West,273,1.0,3.0,81,0.00,,---,0.32,VWS V14.01,2013-04-17 15:21:00,
2013-04-17 11:26:00,67.1,60.7,30.19,NE,49,0.0,1.0,80,0.00,,---,0.32,VWS V14.01,2013-04-17 15:26:00,
2013-04-17 11:31:00,66.9,60.2,30.19,North,354,0.0,1.0,79,0.00,,---,0.32,VWS V14.01,2013-04-17 15:31:00,
2013-04-17 11:36:00,66.8,60.4,30.19,North,350,0.0,1.0,80,0.00,,---,0.32,VWS V14.01,2013-04-17 15:36:00,
2013-04-17 11:41:00,66.7,60.0,30.19,NNE,20,0.0,1.0,79,0.00,,---,0.32,VWS V14.01,2013-04-17 15:41:00,
2013-04-17 11:46:00,66.9,60.2,30.19,NNE,13,0.0,3.0,79,0.00,,---,0.32,VWS V14.01,2013-04-17 15:46:00,
2013-04-17 11:52:00,67.1,60.0,30.19,SW,229,0.0,1.0,78,0.00,,---,0.32,VWS V14.01,2013-04-17 15:52:00,
2013-04-17 11:57:00,67.1,59.7,30.19,ENE,73,1.0,2.0,77,0.00,,---,0.32,VWS V14.01,2013-04-17 15:57:00,
2013-04-17 12:02:00,67.1,60.0,30.19,NE,37,2.0,3.0,78,0.00,,---,0.32,VWS V14.01,2013-04-17 16:02:00,
2013-04-17 12:07:00,67.1,59.7,30.19,NNE,26,1.0,2.0,77,0.00,,---,0.32,VWS V14.01,2013-04-17 16:07:00,
2013-04-17 12:12:00,67.1,60.0,30.19,NE,46,0.0,0.0,78,0.00,,---,0.32,VWS V14.01,2013-04-17 16:12:00,
2013-04-17 12:17:00,67.4,60.0,30.19,SE,136,0.0,0.0,77,0.00,,---,0.32,VWS V14.01,2013-04-17 16:17:00,
2013-04-17 12:22:00,67.8,60.0,30.19,NNW,336,1.0,1.0,76,0.00,,---,0.32,VWS V14.01,2013-04-17 16:22:00,
2013-04-17 12:27:00,67.5,59.7,30.19,NW,321,0.0,2.0,76,0.00,,---,0.32,VWS V14.01,2013-04-17 16:27:00,
2013-04-17 12:32:00,67.1,59.3,30.19,NNW,328,0.0,2.0,76,0.00,,---,0.32,VWS V14.01,2013-04-17 16:32:00,
2013-04-17 12:38:00,66.2,58.8,30.19,NE,41,1.0,2.0,77,0.00,,---,0.32,VWS V14.01,2013-04-17 16:38:00,
2013-04-17 12:43:00,65.4,58.4,30.19,North,4,1.0,2.0,78,0.00,,---,0.32,VWS V14.01,2013-04-17 16:43:00,
2013-04-17 12:48:00,65.2,58.5,30.19,NE,50,0.0,2.0,79,0.00,,---,0.32,VWS V14.01,2013-04-17 16:48:00,
2013-04-17 12:53:00,65.2,57.8,30.19,North,351,0.0,3.0,77,0.00,,---,0.32,VWS V14.01,2013-04-17 16:53:00,
2013-04-17 12:58:00,65.3,58.6,30.19,East,92,0.0,0.0,79,0.00,,---,0.32,VWS V14.01,2013-04-17 16:58:00,
2013-04-17 13:03:00,65.1,58.4,30.19,NE,50,0.0,2.0,79,0.00,,---,0.32,VWS V14.01,2013-04-17 17:03:00,
2013-04-17 13:08:00,65.0,58.3,30.19,NNE,26,2.0,2.0,79,0.00,,---,0.32,VWS V14.01,2013-04-17 17:08:00,
2013-04-17 13:13:00,65.1,58.1,30.19,SW,233,2.0,2.0,78,0.00,,---,0.32,VWS V14.01,2013-04-17 17:13:00,
2013-04-17 13:18:00,65.8,58.8,30.19,NNW,328,0.0,1.0,78,0.00,,---,0.32,VWS V14.01,2013-04-17 17:18:00,
2013-04-17 13:23:00,66.2,58.4,30.19,NNE,13,0.0,2.0,76,0.00,,---,0.32,VWS V14.01,2013-04-17 17:23:00,
2013-04-17 13:28:00,66.2,58.4,30.18,East,80,0.0,1.0,76,0.00,,---,0.32,VWS V14.01,2013-04-17 17:28:00,
2013-04-17 13:33:00,66.2,58.0,30.18,NNE,15,0.0,2.0,75,0.00,,---,0.32,VWS V14.01,2013-04-17 17:33:00,
2013-04-17 13:38:00,66.2,58.4,30.18,West,261,0.0,0.0,76,0.00,,---,0.32,VWS V14.01,2013-04-17 17:38:00,
2013-04-17 13:43:00,66.0,57.9,30.19,North,5,0.0,1.0,75,0.00,,---,0.32,VWS V14.01,2013-04-17 17:43:00,
2013-04-17 13:48:00,65.9,58.5,30.18,NNE,18,0.0,0.0,77,0.00,,---,0.32,VWS V14.01,2013-04-17 17:48:00,
2013-04-17 13:53:00,65.4,58.0,30.18,SE,129,1.0,2.0,77,0.00,,---,0.32,VWS V14.01,2013-04-17 17:53:00,
2013-04-17 13:58:00,64.7,57.7,30.18,ENE,64,0.0,0.0,78,0.00,,---,0.32,VWS V14.01,2013-04-17 17:58:00,
2013-04-17 14:03:00,64.8,58.1,30.18,ENE,63,0.0,1.0,79,0.00,,---,0.32,VWS V14.01,2013-04-17 18:03:00,
2013-04-17 14:08:00,65.1,58.1,30.18,NNW,328,0.0,0.0,78,0.00,,---,0.32,VWS V14.01,2013-04-17 18:08:00,
2013-04-17 14:13:00,65.4,58.7,30.18,NE,46,0.0,0.0,79,0.00,,---,0.32,VWS V14.01,2013-04-17 18:13:00,
2013-04-17 14:18:00,65.5,58.5,30.18,East,88,1.0,2.0,78,0.00,,---,0.32,VWS V14.01,2013-04-17 18:18:00,
2013-04-17 14:24:00,65.6,58.6,30.18,SE,129,0.0,0.0,78,0.00,,---,0.32,VWS V14.01,2013-04-17 18:24:00,
2013-04-17 14:29:00,66.1,58.7,30.18,NE,40,0.0,1.0,77,0.00,,---,0.32,VWS V14.01,2013-04-17 18:29:00,
2013-04-17 14:34:00,66.5,59.1,30.18,ENE,69,2.0,3.0,77,0.00,,---,0.32,VWS V14.01,2013-04-17 18:34:00,
2013-04-17 14:39:00,66.4,58.2,30.18,NW,319,1.0,1.0,75,0.00,,---,0.32,VWS V14.01,2013-04-17 18:39:00,
2013-04-17 14:44:00,66.4,58.6,30.18,East,80,2.0,2.0,76,0.00,,---,0.32,VWS V14.01,2013-04-17 18:44:00,
2013-04-17 14:49:00,66.4,58.6,30.17,ENE,74,1.0,1.0,76,0.00,,---,0.32,VWS V14.01,2013-04-17 18:49:00,
2013-04-17 14:54:00,66.7,58.5,30.17,ENE,72,2.0,3.0,75,0.00,,---,0.32,VWS V14.01,2013-04-17 18:54:00,
2013-04-17 14:59:00,66.8,58.3,30.17,ESE,110,2.0,4.0,74,0.00,,---,0.32,VWS V14.01,2013-04-17 18:59:00,
2013-04-17 15:05:00,67.5,59.3,30.17,NE,46,2.0,2.0,75,0.00,,---,0.32,VWS V14.01,2013-04-17 19:05:00,
2013-04-17 15:10:00,67.5,58.5,30.17,East,101,1.0,1.0,73,0.00,,---,0.32,VWS V14.01,2013-04-17 19:10:00,
2013-04-17 15:15:00,67.7,58.4,30.17,NNW,335,0.0,1.0,72,0.00,,---,0.32,VWS V14.01,2013-04-17 19:15:00,
2013-04-17 15:20:00,67.7,58.7,30.17,NNE,29,1.0,2.0,73,0.00,,---,0.32,VWS V14.01,2013-04-17 19:20:00,
2013-04-17 15:25:00,67.5,58.5,30.17,NNE,19,0.0,0.0,73,0.00,,---,0.32,VWS V14.01,2013-04-17 19:25:00,
2013-04-17 15:30:00,67.3,58.0,30.17,North,4,0.0,2.0,72,0.00,,---,0.32,VWS V14.01,2013-04-17 19:30:00,
2013-04-17 15:35:00,67.7,58.7,30.17,ENE,73,1.0,1.0,73,0.00,,---,0.32,VWS V14.01,2013-04-17 19:35:00,
2013-04-17 15:40:00,68.1,58.3,30.17,WSW,239,0.0,0.0,71,0.00,,---,0.32,VWS V14.01,2013-04-17 19:40:00,
2013-04-17 15:45:00,67.9,58.5,30.17,ENE,77,0.0,1.0,72,0.00,,---,0.32,VWS V14.01,2013-04-17 19:45:00,
2013-04-17 15:50:00,68.0,58.7,30.16,SSE,147,2.0,2.0,72,0.00,,---,0.32,VWS V14.01,2013-04-17 19:50:00,
2013-04-17 15:55:00,68.1,58.3,30.16,SE,142,2.0,4.0,71,0.00,,---,0.32,VWS V14.01,2013-04-17 19:55:00,
2013-04-17 16:00:00,68.0,59.0,30.16,ESE,119,2.0,3.0,73,0.00,,---,0.32,VWS V14.01,2013-04-17 20:00:00,
2013-04-17 16:05:00,68.3,58.9,30.16,East,84,0.0,2.0,72,0.00,,---,0.32,VWS V14.01,2013-04-17 20:05:00,
2013-04-17 16:11:00,68.5,59.1,30.16,ESE,110,1.0,1.0,72,0.00,,---,0.32,VWS V14.01,2013-04-17 20:11:00,
2013-04-17 16:16:00,68.6,58.8,30.16,ESE,108,2.0,3.0,71,0.00,,---,0.32,VWS V14.01,2013-04-17 20:16:00,
2013-04-17 16:21:00,68.6,58.8,30.15,East,88,1.0,2.0,71,0.00,,---,0.32,VWS V14.01,2013-04-17 20:21:00,
2013-04-17 16:26:00,68.8,59.0,30.15,ENE,71,0.0,2.0,71,0.00,,---,0.32,VWS V14.01,2013-04-17 20:26:00,
2013-04-17 16:31:00,68.8,58.2,30.16,East,81,0.0,0.0,69,0.00,,---,0.32,VWS V14.01,2013-04-17 20:31:00,
2013-04-17 16:37:00,69.0,58.8,30.16,SE,139,2.0,2.0,70,0.00,,---,0.32,VWS V14.01,2013-04-17 20:37:00,
2013-04-17 16:42:00,68.8,59.0,30.16,ESE,114,1.0,2.0,71,0.00,,---,0.32,VWS V14.01,2013-04-17 20:42:00,
2013-04-17 16:47:00,68.5,58.3,30.16,ESE,104,1.0,1.0,70,0.00,,---,0.32,VWS V14.01,2013-04-17 20:47:00,
2013-04-17 16:52:00,68.3,58.5,30.16,ESE,106,3.0,3.0,71,0.00,,---,0.32,VWS V14.01,2013-04-17 20:52:00,
2013-04-17 16:57:00,68.6,59.2,30.15,NE,50,1.0,2.0,72,0.00,,---,0.32,VWS V14.01,2013-04-17 20:57:00,
2013-04-17 17:02:00,68.7,59.3,30.15,ESE,123,2.0,2.0,72,0.00,,---,0.32,VWS V14.01,2013-04-17 21:02:00,
2013-04-17 17:07:00,68.4,59.0,30.15,East,101,2.0,2.0,72,0.00,,---,0.32,VWS V14.01,2013-04-17 21:07:00,
2013-04-17 17:12:00,68.0,58.7,30.15,SE,127,0.0,0.0,72,0.00,,---,0.32,VWS V14.01,2013-04-17 21:12:00,
2013-04-17 17:17:00,67.7,58.4,30.15,East,101,2.0,2.0,72,0.00,,---,0.32,VWS V14.01,2013-04-17 21:17:00,
2013-04-17 17:22:00,67.3,58.0,30.16,SE,127,0.0,2.0,72,0.00,,---,0.32,VWS V14.01,2013-04-17 21:22:00,
2013-04-17 17:27:00,67.0,57.7,30.16,ENE,78,0.0,0.0,72,0.00,,---,0.32,VWS V14.01,2013-04-17 21:27:00,
2013-04-17 17:32:00,66.4,57.5,30.16,ENE,75,2.0,2.0,73,0.00,,---,0.32,VWS V14.01,2013-04-17 21:32:00,
2013-04-17 17:37:00,66.1,57.6,30.16,East,92,0.0,1.0,74,0.00,,---,0.32,VWS V14.01,2013-04-17 21:37:00,
2013-04-17 17:43:00,65.8,56.9,30.16,East,95,1.0,1.0,73,0.00,,---,0.32,VWS V14.01,2013-04-17 21:43:00,
2013-04-17 17:48:00,65.6,57.1,30.16,SE,132,0.0,1.0,74,0.00,,---,0.32,VWS V14.01,2013-04-17 21:48:00,
2013-04-17 17:53:00,65.4,57.3,30.16,ESE,111,0.0,0.0,75,0.00,,---,0.32,VWS V14.01,2013-04-17 21:53:00,
2013-04-17 17:58:00,65.3,56.8,30.16,South,187,0.0,0.0,74,0.00,,---,0.32,VWS V14.01,2013-04-17 21:58:00,
2013-04-17 18:03:00,65.1,57.0,30.16,ESE,119,0.0,1.0,75,0.00,,---,0.32,VWS V14.01,2013-04-17 22:03:00,
2013-04-17 18:08:00,65.0,56.9,30.16,ESE,105,1.0,1.0,75,0.00,,---,0.32,VWS V14.01,2013-04-17 22:08:00,
2013-04-17 18:13:00,64.8,56.7,30.16,East,98,0.0,0.0,75,0.00,,---,0.32,VWS V14.01,2013-04-17 22:13:00,
2013-04-17 18:18:00,64.6,56.9,30.16,ESE,108,1.0,2.0,76,0.00,,---,0.32,VWS V14.01,2013-04-17 22:18:00,
2013-04-17 18:23:00,64.4,56.7,30.17,SE,125,0.0,1.0,76,0.00,,---,0.32,VWS V14.01,2013-04-17 22:23:00,
2013-04-17 18:29:00,64.2,56.5,30.17,ESE,110,0.0,0.0,76,0.00,,---,0.32,VWS V14.01,2013-04-17 22:29:00,
2013-04-17 18:34:00,64.0,55.9,30.17,ESE,114,1.0,2.0,75,0.00,,---,0.32,VWS V14.01,2013-04-17 22:34:00,
2013-04-17 18:39:00,63.9,56.2,30.17,ESE,115,1.0,1.0,76,0.00,,---,0.32,VWS V14.01,2013-04-17 22:39:00,
2013-04-17 18:44:00,63.8,56.5,30.17,ESE,102,0.0,0.0,77,0.00,,---,0.32,VWS V14.01,2013-04-17 22:44:00,
2013-04-17 18:49:00,63.8,56.8,30.17,SE,126,2.0,2.0,78,0.00,,---,0.32,VWS V14.01,2013-04-17 22:49:00,
2013-04-17 18:54:00,63.7,56.0,30.17,ESE,102,0.0,2.0,76,0.00,,---,0.32,VWS V14.01,2013-04-17 22:54:00,
2013-04-17 18:59:00,63.8,56.1,30.17,SE,129,1.0,1.0,76,0.00,,---,0.32,VWS V14.01,2013-04-17 22:59:00,
2013-04-17 19:04:00,63.7,56.0,30.17,SE,136,1.0,1.0,76,0.00,,---,0.32,VWS V14.01,2013-04-17 23:04:00,
2013-04-17 19:09:00,63.7,56.0,30.17,SSE,156,1.0,1.0,76,0.00,,---,0.32,VWS V14.01,2013-04-17 23:09:00,
2013-04-17 19:14:00,63.5,55.4,30.17,ESE,114,0.0,1.0,75,0.00,,---,0.32,VWS V14.01,2013-04-17 23:14:00,
2013-04-17 19:19:00,63.3,55.2,30.17,ESE,108,0.0,0.0,75,0.00,,---,0.32,VWS V14.01,2013-04-17 23:19:00,
2013-04-17 19:25:00,63.0,55.0,30.17,ESE,113,1.0,1.0,75,0.00,,---,0.32,VWS V14.01,2013-04-17 23:25:00,
2013-04-17 19:30:00,62.8,54.8,30.18,SE,134,0.0,0.0,75,0.00,,---,0.32,VWS V14.01,2013-04-17 23:30:00,
2013-04-17 19:35:00,62.6,54.2,30.18,ESE,105,1.0,2.0,74,0.00,,---,0.32,VWS V14.01,2013-04-17 23:35:00,
2013-04-17 19:40:00,62.5,54.1,30.18,East,99,0.0,0.0,74,0.00,,---,0.32,VWS V14.01,2013-04-17 23:40:00,
2013-04-17 19:45:00,62.5,54.5,30.19,ESE,115,0.0,0.0,75,0.00,,---,0.32,VWS V14.01,2013-04-17 23:45:00,
2013-04-17 19:50:00,62.3,54.3,30.18,ESE,106,0.0,0.0,75,0.00,,---,0.32,VWS V14.01,2013-04-17 23:50:00,
2013-04-17 19:55:00,62.2,54.2,30.18,ESE,110,0.0,1.0,75,0.00,,---,0.32,VWS V14.01,2013-04-17 23:55:00,
2013-04-17 20:00:00,62.1,54.5,30.18,ESE,110,0.0,1.0,76,0.00,,---,0.32,VWS V14.01,2013-04-18 00:00:00,
2013-04-17 20:05:00,62.1,54.1,30.18,East,100,0.0,0.0,75,0.00,,---,0.32,VWS V14.01,2013-04-18 00:05:00,
2013-04-17 20:10:00,62.2,53.8,30.18,East,79,1.0,1.0,74,0.00,,---,0.32,VWS V14.01,2013-04-18 00:10:00,
2013-04-17 20:15:00,62.2,53.8,30.18,ESE,109,0.0,0.0,74,0.00,,---,0.32,VWS V14.01,2013-04-18 00:15:00,
2013-04-17 20:20:00,62.2,53.8,30.17,SE,146,0.0,1.0,74,0.00,,---,0.32,VWS V14.01,2013-04-18 00:20:00,
2013-04-17 20:25:00,61.9,53.9,30.18,ESE,107,0.0,0.0,75,0.00,,---,0.32,VWS V14.01,2013-04-18 00:25:00,
2013-04-17 20:30:00,61.7,53.7,30.18,ESE,109,0.0,1.0,75,0.00,,---,0.32,VWS V14.01,2013-04-18 00:30:00,
2013-04-17 20:35:00,61.6,53.6,30.18,SSE,158,2.0,2.0,75,0.00,,---,0.32,VWS V14.01,2013-04-18 00:35:00,
2013-04-17 20:40:00,61.6,53.6,30.18,ESE,107,0.0,0.0,75,0.00,,---,0.32,VWS V14.01,2013-04-18 00:40:00,
2013-04-17 20:46:00,61.6,53.6,30.18,ESE,111,0.0,0.0,75,0.00,,---,0.32,VWS V14.01,2013-04-18 00:46:00,
2013-04-17 20:51:00,61.6,53.6,30.18,ESE,106,0.0,0.0,75,0.00,,---,0.32,VWS V14.01,2013-04-18 00:51:00,
2013-04-17 20:56:00,61.6,53.6,30.18,ESE,114,1.0,1.0,75,0.00,,---,0.32,VWS V14.01,2013-04-18 00:56:00,
2013-04-17 21:01:00,61.8,53.4,30.18,ESE,113,0.0,1.0,74,0.00,,---,0.32,VWS V14.01,2013-04-18 01:01:00,
2013-04-17 21:06:00,61.9,53.5,30.18,SSE,163,1.0,2.0,74,0.00,,---,0.32,VWS V14.01,2013-04-18 01:06:00,
2013-04-17 21:11:00,62.0,53.3,30.18,ESE,113,1.0,1.0,73,0.00,,---,0.32,VWS V14.01,2013-04-18 01:11:00,
2013-04-17 21:16:00,62.2,53.1,30.18,SE,128,1.0,1.0,72,0.00,,---,0.32,VWS V14.01,2013-04-18 01:16:00,
2013-04-17 21:21:00,62.3,53.2,30.18,ESE,117,2.0,2.0,72,0.00,,---,0.32,VWS V14.01,2013-04-18 01:21:00,
2013-04-17 21:26:00,62.3,52.8,30.18,ESE,112,2.0,2.0,71,0.00,,---,0.32,VWS V14.01,2013-04-18 01:26:00,
2013-04-17 21:31:00,62.2,52.7,30.19,ESE,103,1.0,2.0,71,0.00,,---,0.32,VWS V14.01,2013-04-18 01:31:00,
2013-04-17 21:36:00,62.1,52.6,30.19,ESE,110,1.0,2.0,71,0.00,,---,0.32,VWS V14.01,2013-04-18 01:36:00,
2013-04-17 21:41:00,62.1,52.6,30.19,ESE,110,2.0,2.0,71,0.00,,---,0.32,VWS V14.01,2013-04-18 01:41:00,
2013-04-17 21:47:00,62.0,52.5,30.19,ESE,105,1.0,3.0,71,0.00,,---,0.32,VWS V14.01,2013-04-18 01:47:00,
2013-04-17 21:52:00,62.0,52.1,30.19,East,86,1.0,1.0,70,0.00,,---,0.32,VWS V14.01,2013-04-18 01:52:00,
2013-04-17 21:57:00,61.9,52.0,30.20,East,98,1.0,2.0,70,0.00,,---,0.32,VWS V14.01,2013-04-18 01:57:00,
2013-04-17 22:02:00,61.8,52.7,30.20,ESE,108,2.0,3.0,72,0.00,,---,0.32,VWS V14.01,2013-04-18 02:02:00,
2013-04-17 22:07:00,61.5,52.4,30.20,ESE,106,2.0,3.0,72,0.00,,---,0.32,VWS V14.01,2013-04-18 02:07:00,
2013-04-17 22:12:00,61.6,52.1,30.20,ESE,103,2.0,4.0,71,0.00,,---,0.32,VWS V14.01,2013-04-18 02:12:00,
2013-04-17 22:17:00,61.6,52.1,30.20,ESE,104,2.0,2.0,71,0.00,,---,0.32,VWS V14.01,2013-04-18 02:17:00,
2013-04-17 22:22:00,61.5,52.4,30.20,ESE,113,3.0,3.0,72,0.00,,---,0.32,VWS V14.01,2013-04-18 02:22:00,
2013-04-17 22:27:00,61.3,52.6,30.20,ESE,115,3.0,4.0,73,0.00,,---,0.32,VWS V14.01,2013-04-18 02:27:00,
2013-04-17 22:32:00,61.2,52.9,30.20,East,85,1.0,3.0,74,0.00,,---,0.32,VWS V14.01,2013-04-18 02:32:00,
2013-04-17 22:38:00,60.8,52.8,30.20,East,96,1.0,3.0,75,0.00,,---,0.32,VWS V14.01,2013-04-18 02:38:00,
2013-04-17 22:43:00,60.7,52.7,30.19,ESE,108,1.0,2.0,75,0.00,,---,0.32,VWS V14.01,2013-04-18 02:43:00,
2013-04-17 22:48:00,60.9,52.6,30.20,SE,131,2.0,2.0,74,0.00,,---,0.32,VWS V14.01,2013-04-18 02:48:00,
2013-04-17 22:53:00,61.2,52.9,30.20,ESE,111,4.0,4.0,74,0.00,,---,0.32,VWS V14.01,2013-04-18 02:53:00,
2013-04-17 22:58:00,61.3,53.0,30.20,ESE,122,2.0,4.0,74,0.00,,---,0.32,VWS V14.01,2013-04-18 02:58:00,
2013-04-17 23:03:00,61.4,52.7,30.20,East,94,3.0,5.0,73,0.00,,---,0.32,VWS V14.01,2013-04-18 03:03:00,
2013-04-17 23:08:00,61.4,53.0,30.20,ESE,102,2.0,3.0,74,0.00,,---,0.32,VWS V14.01,2013-04-18 03:08:00,
2013-04-17 23:13:00,61.3,53.0,30.20,ESE,113,3.0,5.0,74,0.00,,---,0.32,VWS V14.01,2013-04-18 03:13:00,
2013-04-17 23:18:00,61.3,53.3,30.20,ESE,111,3.0,5.0,75,0.00,,---,0.32,VWS V14.01,2013-04-18 03:18:00,
2013-04-17 23:23:00,61.1,53.1,30.19,ESE,117,4.0,5.0,75,0.00,,---,0.32,VWS V14.01,2013-04-18 03:23:00,
2013-04-17 23:28:00,60.9,53.7,30.19,ESE,113,3.0,5.0,77,0.00,,---,0.32,VWS V14.01,2013-04-18 03:28:00,
2013-04-17 23:33:00,60.7,53.8,30.19,East,91,1.0,3.0,78,0.00,,---,0.32,VWS V14.01,2013-04-18 03:33:00,
2013-04-17 23:38:00,60.6,54.1,30.19,SE,124,2.0,3.0,79,0.00,,---,0.32,VWS V14.01,2013-04-18 03:38:00,
2013-04-17 23:44:00,60.7,54.2,30.19,East,84,1.0,3.0,79,0.00,,---,0.32,VWS V14.01,2013-04-18 03:44:00,
2013-04-17 23:49:00,60.8,54.3,30.19,ESE,114,1.0,2.0,79,0.00,,---,0.32,VWS V14.01,2013-04-18 03:49:00,
2013-04-17 23:54:00,60.7,54.5,30.19,ESE,108,1.0,2.0,80,0.00,,---,0.32,VWS V14.01,2013-04-18 03:54:00,
2013-04-17 23:59:00,60.5,54.7,30.19,ENE,77,1.0,3.0,81,0.00,,---,0.32,VWS V14.01,2013-04-18 03:59:00,